Wind_Speed
16 16 15 15 15 14 13 12 11 11 11 11 11 11 11 11 10 10 9 9 9 9 9 9 9 8 8 8 7 7 7 6 6 6 6 6 6 6 6 6 6 5 5
18 17 17 16 16 16 15 14 13 13 13 13 12 12 12 12 12 12 11 10 10 10 10 10 10 10 9 9 9 9 9 8 8 8 8 8 8 8 8 7 7 7 7
19 19 19 18 18 18 17 16 15 14 14 14 13 13 13 13 13 14 13 12 12 12 12 12 12 11 11 11 11 10 10 10 9 9 9 9 9 9 9 9 9 9 9
21 21 21 20 20 19 19 18 17 17 17 15 14 14 14 14 14 15 15 14 14 14 14 14 13 13 13 12 12 12 11 11 11 11 11 10 10 10 10 11 11 11 11
23 22 22 22 21 21 21 20 19 18 18 18 16 16 16 15 15 15 16 16 16 15 15 15 15 14 14 14 14 13 13 12 13 12 12 12 12 12 12 12 12 12 12
25 24 24 23 23 22 22 22 21 20 20 19 18 18 18 17 17 17 16 16 16 16 16 16 16 16 16 15 15 15 14 14 14 14 14 14 14 14 14 14 14 14 14
27 26 25 25 25 24 24 23 23 22 21 21 20 20 20 19 18 18 17 17 18 18 18 18 18 18 18 17 17 16 16 16 15 15 15 15 15 15 15 15 15 16 16
29 28 28 27 27 27 26 26 25 24 23 23 22 22 21 21 20 19 18 19 19 19 19 19 19 19 19 19 18 18 17 17 17 17 17 17 17 17 17 17 17 17 18
30 30 30 29 28 28 28 28 27 27 26 25 25 24 23 23 23 22 22 21 21 20 20 20 20 20 19 19 19 19 19 19 19 19 19 18 18 19 19 19 19 19 20
33 32 32 31 30 30 30 29 29 29 28 28 27 26 26 25 25 25 24 24 24 23 22 22 20 20 20 20 20 20 20 21 21 21 21 21 21 21 21 21 21 22 22
34 34 33 33 33 32 32 31 31 31 30 30 29 28 28 27 27 27 26 26 26 25 24 24 24 24 23 23 23 22 22 23 23 23 23 23 23 23 23 24 23 23 24
35 36 35 35 34 35 35 34 33 33 32 32 31 31 30 29 29 29 28 28 27 27 27 26 26 26 25 25 25 25 25 25 25 25 25 25 25 25 26 26 26 25 25
36 36 36 36 36 36 36 36 36 36 35 34 33 33 33 32 32 31 31 30 29 29 29 28 29 28 27 27 27 27 26 26 26 26 26 26 27 27 27 27 27 27 27
37 37 37 37 37 38 39 38 37 37 37 36 35 35 35 34 34 34 33 32 31 31 31 30 30 30 29 28 28 28 28 28 28 28 28 28 28 29 29 29 29 29 29
37 38 38 38 38 39 40 39 39 38 38 37 37 37 37 36 35 35 34 33 33 33 33 32 32 32 31 31 31 31 31 30 30 30 30 30 30 30 30 30 31 31 31
37 38 38 37 38 39 40 40 39 39 38 38 39 38 38 38 37 37 37 36 35 35 34 34 34 34 33 33 33 33 33 33 33 33 33 32 32 32 32 33 33 33 33
37 38 38 37 38 39 39 40 40 40 39 39 40 40 39 39 39 39 39 38 37 37 36 36 36 36 36 35 35 35 35 35 35 35 35 35 35 35 35 35 35 35 35
36 38 38 39 39 39 40 40 41 40 39 39 39 40 39 39 39 39 39 38 38 38 38 38 38 38 38 38 38 38 37 37 37 37 37 36 37 37 37 37 37 37 37
37 38 39 39 39 39 40 41 40 39 39 39 39 40 40 40 41 40 40 40 39 39 40 40 40 40 40 40 40 40 39 39 39 38 38 38 38 38 38 39 39 40 39
37 38 39 39 39 39 40 40 40 40 41 41 42 41 41 42 42 42 41 40 40 41 41 41 41 41 42 42 42 41 41 41 41 40 40 40 40 40 40 40 40 41 41
36 37 38 39 40 40 40 40 40 40 41 42 42 42 42 42 43 43 43 43 42 42 42 42 42 43 43 43 44 44 44 43 43 42 42 42 42 41 42 42 42 42 42
35 36 37 38 39 39 40 41 41 42 42 42 44 44 44 44 43 43 45 45 44 43 42 43 43 43 43 44 44 45 45 45 44 43 43 44 44 43 43 43 44 44 44
34 36 36 37 38 39 40 42 43 43 44 44 44 45 45 46 46 46 45 45 46 45 43 42 43 44 44 45 46 46 46 46 44 44 45 45 45 45 45 45 45 46 46
35 36 36 36 37 39 40 41 43 44 44 45 45 45 46 45 46 47 46 46 46 46 46 45 45 45 45 46 47 47 48 48 47 47 47 47 47 47 47 46 46 47 48
36 36 37 37 37 38 39 41 42 44 45 46 46 46 46 46 46 47 48 48 47 47 47 47 47 47 46 47 47 47 48 48 48 48 48 48 48 48 48 48 49 49 49
34 35 37 38 38 39 39 41 43 44 45 46 47 47 48 47 47 48 48 49 50 49 48 48 48 48 48 48 48 49 49 49 48 49 49 48 49 49 49 50 50 50 50
Wind_Direction
254 252 250 248 247 246 247 247 247 246 244 245 245 244 244 245 245 246 247 248 248 249 250 249 250 251 251 252 253 253 253 255 259 259 261 260 263 267 270 271 270 270 271
251 250 248 247 246 246 246 246 248 247 244 245 246 246 245 245 246 247 248 249 249 248 250 249 249 251 252 253 253 253 254 257 260 260 261 261 262 266 267 266 268 270 271
249 248 248 246 245 246 247 248 249 248 245 245 246 246 245 245 246 247 248 250 249 249 251 251 251 251 253 253 253 254 254 257 259 260 262 262 263 266 267 266 267 270 271
248 247 248 246 244 244 246 247 248 248 246 244 245 247 246 246 248 248 248 250 251 251 252 252 253 254 254 252 253 255 257 258 259 261 262 262 264 267 269 270 270 270 272
248 247 247 246 243 243 245 245 246 246 245 245 247 247 248 247 247 250 251 251 252 253 252 253 254 256 255 254 253 255 260 262 263 264 264 263 264 266 270 271 272 273 274
248 247 246 246 244 243 244 245 246 245 245 246 247 248 249 249 249 251 253 251 251 253 253 254 255 256 255 255 256 257 261 263 263 264 265 264 265 267 269 271 272 274 275
249 248 246 246 245 243 243 245 246 246 246 245 246 248 251 252 252 252 251 252 253 254 253 254 255 256 254 254 256 259 261 262 262 264 264 264 265 267 269 270 271 272 274
249 249 247 245 245 244 243 244 245 247 246 247 248 249 251 252 253 252 253 256 259 256 255 256 256 256 255 255 256 258 259 261 263 263 264 264 265 266 268 269 270 272 274
249 248 247 245 245 244 244 245 245 247 247 246 247 249 250 252 253 253 255 257 257 257 257 256 256 255 255 256 256 257 259 262 264 264 264 264 265 266 267 269 271 272 274
249 248 247 247 246 245 245 246 246 247 247 247 247 248 249 250 253 254 255 256 257 257 258 257 256 257 255 256 258 259 260 262 263 264 265 265 265 266 267 269 271 272 274
248 247 247 247 247 247 246 246 245 246 246 247 248 249 250 251 253 255 255 255 255 256 256 256 259 259 257 258 259 260 260 261 262 264 265 265 266 267 267 269 271 272 273
247 247 247 248 248 249 248 247 246 246 246 246 247 249 250 252 253 254 255 254 254 255 256 258 258 258 258 260 259 259 260 262 262 263 265 266 267 267 269 270 271 272 273
246 246 247 248 248 248 248 248 247 246 246 246 247 248 250 252 253 254 254 255 256 256 256 258 257 257 259 260 260 260 261 262 263 264 265 267 268 268 269 271 272 273 273
247 247 248 249 248 246 246 248 248 248 247 246 247 248 249 251 252 253 254 255 255 255 256 258 257 258 259 260 260 260 261 261 264 266 267 267 267 268 269 270 272 274 274
248 248 248 249 248 246 246 247 247 248 248 248 249 248 249 251 253 254 254 254 255 255 256 257 258 259 259 260 261 261 261 261 263 265 266 267 268 268 269 270 272 274 275
249 248 248 249 248 247 247 247 247 247 248 249 250 249 250 252 252 253 254 255 256 256 257 257 258 258 258 259 260 261 262 262 262 264 266 267 267 268 269 270 271 273 274
249 249 249 248 248 248 248 248 246 246 247 248 249 250 251 252 253 253 255 255 257 258 258 258 258 259 259 260 261 262 262 263 264 265 267 267 267 267 269 270 272 273 274
250 249 250 249 249 249 248 248 247 246 246 248 249 250 251 252 252 253 254 255 256 258 258 259 259 259 260 260 260 262 263 264 265 266 267 268 268 268 269 270 271 273 274
252 251 251 250 250 250 249 247 247 246 247 248 249 250 251 252 253 253 255 255 256 257 259 259 259 259 260 260 261 262 262 265 265 266 267 269 269 269 269 271 272 272 274
253 252 252 251 250 248 248 247 247 247 248 249 250 251 252 253 254 254 254 256 257 258 259 260 260 260 260 260 261 262 262 264 264 266 267 268 268 268 269 271 272 273 273
255 254 255 253 251 249 248 249 249 250 251 252 252 252 252 254 254 255 255 256 257 258 259 259 260 260 260 260 261 262 263 264 265 266 266 268 268 268 269 271 272 273 273
257 255 255 254 254 252 251 251 252 252 253 254 254 253 252 252 253 255 255 255 257 257 258 258 259 259 259 260 262 263 263 263 265 265 267 268 268 269 269 270 272 273 273
259 257 256 256 254 254 254 253 254 256 255 255 255 254 254 253 253 254 255 256 256 257 257 257 258 259 260 261 262 264 264 263 264 266 268 268 268 269 269 271 272 272 274
260 258 258 257 256 255 255 254 255 256 257 256 255 255 255 254 254 255 256 256 257 257 257 257 259 259 260 261 262 264 264 264 264 265 267 268 269 269 269 271 272 273 274
260 260 258 258 257 257 257 257 257 258 257 256 255 256 255 254 254 255 256 256 257 257 258 259 260 261 262 263 264 265 265 265 265 266 267 269 269 269 270 271 272 273 274
261 260 259 259 258 259 260 260 259 259 257 256 256 257 257 256 256 255 256 257 257 257 258 258 259 262 263 264 265 266 266 266 266 267 268 269 269 270 271 272 273 274 274
Height
5824 5825 5826 5827 5828 5829 5830 5831 5832 5833 5834 5835 5836 5837 5838 5838 5839 5841 5842 5843 5844 5845 5845 5846 5847 5847 5848 5848 5849 5849 5850 5850 5851 5851 5852 5852 5853 5853 5853 5854 5854 5854 5854
5821 5822 5823 5824 5826 5827 5828 5829 5830 5831 5832 5833 5834 5834 5835 5836 5837 5839 5839 5841 5842 5843 5843 5844 5845 5846 5846 5847 5847 5848 5849 5849 5850 5850 5851 5851 5851 5852 5852 5852 5853 5853 5853
5817 5818 5820 5821 5822 5823 5825 5826 5827 5828 5829 5830 5831 5832 5833 5834 5835 5836 5837 5838 5839 5840 5841 5842 5843 5844 5844 5845 5845 5846 5847 5847 5848 5849 5849 5850 5850 5850 5850 5851 5851 5851 5851
5813 5814 5816 5817 5818 5820 5821 5823 5824 5825 5826 5827 5828 5829 5830 5831 5832 5834 5835 5836 5837 5838 5839 5840 5841 5841 5842 5843 5843 5844 5845 5846 5846 5847 5847 5848 5848 5848 5849 5849 5849 5849 5849
5809 5810 5811 5813 5814 5816 5817 5819 5820 5821 5822 5823 5825 5826 5827 5828 5830 5831 5832 5833 5834 5835 5836 5837 5838 5839 5840 5840 5841 5842 5843 5843 5844 5844 5845 5845 5846 5846 5846 5847 5847 5847 5847
5804 5805 5807 5809 5810 5812 5813 5815 5816 5818 5819 5820 5821 5823 5824 5825 5826 5828 5829 5830 5831 5832 5833 5834 5835 5836 5837 5838 5838 5839 5840 5841 5841 5842 5843 5843 5843 5844 5844 5844 5844 5844 5844
5799 5800 5802 5804 5806 5807 5809 5810 5812 5814 5815 5816 5818 5819 5820 5822 5823 5824 5825 5827 5828 5829 5830 5831 5832 5833 5833 5834 5835 5836 5837 5838 5838 5839 5840 5840 5840 5841 5841 5841 5841 5841 5841
5793 5795 5796 5798 5801 5802 5804 5806 5807 5809 5811 5812 5814 5815 5816 5818 5819 5820 5822 5823 5824 5825 5826 5827 5828 5829 5830 5831 5832 5833 5833 5834 5835 5835 5836 5837 5837 5837 5838 5838 5838 5838 5838
5787 5789 5791 5793 5795 5797 5799 5801 5803 5804 5806 5808 5809 5811 5812 5813 5815 5816 5818 5819 5820 5821 5822 5823 5824 5825 5826 5827 5828 5829 5830 5830 5831 5832 5832 5833 5833 5834 5834 5834 5834 5834 5834
5780 5782 5784 5787 5789 5791 5793 5795 5797 5799 5801 5802 5804 5806 5808 5809 5810 5812 5813 5814 5816 5816 5818 5819 5820 5821 5822 5823 5824 5825 5825 5826 5827 5827 5828 5829 5829 5829 5830 5830 5830 5830 5830
5772 5775 5778 5780 5782 5785 5787 5789 5791 5793 5795 5797 5798 5800 5802 5804 5805 5806 5808 5809 5810 5812 5813 5814 5815 5816 5817 5818 5819 5820 5821 5822 5822 5823 5823 5824 5824 5825 5825 5825 5825 5825 5825
5765 5767 5770 5772 5775 5777 5780 5782 5784 5786 5788 5791 5793 5795 5797 5798 5799 5801 5802 5804 5805 5806 5807 5809 5810 5811 5812 5813 5814 5815 5816 5817 5817 5818 5818 5819 5819 5819 5820 5820 5820 5820 5820
5757 5760 5762 5765 5767 5770 5772 5775 5777 5779 5781 5784 5786 5788 5790 5792 5793 5795 5796 5798 5799 5801 5802 5803 5804 5805 5806 5807 5809 5809 5810 5811 5812 5812 5813 5813 5813 5814 5814 5814 5814 5814 5814
5749 5752 5754 5756 5759 5761 5764 5766 5769 5771 5773 5776 5779 5781 5783 5785 5787 5788 5790 5791 5793 5794 5796 5797 5798 5799 5800 5801 5802 5803 5804 5805 5805 5806 5807 5807 5807 5807 5808 5808 5808 5808 5808
5741 5743 5746 5748 5750 5752 5755 5757 5760 5763 5765 5768 5771 5773 5775 5777 5779 5781 5783 5784 5786 5787 5789 5790 5791 5792 5793 5795 5795 5796 5797 5798 5799 5800 5800 5800 5801 5801 5801 5801 5801 5801 5801
5732 5735 5737 5739 5741 5744 5746 5748 5751 5754 5757 5760 5762 5764 5767 5769 5771 5773 5775 5776 5778 5780 5781 5783 5784 5785 5786 5787 5788 5789 5790 5791 5792 5792 5793 5793 5793 5794 5794 5794 5794 5794 5794
5724 5726 5728 5731 5733 5735 5738 5740 5742 5745 5748 5751 5754 5756 5758 5761 5763 5765 5767 5768 5770 5771 5773 5774 5776 5778 5779 5780 5781 5782 5783 5783 5784 5784 5784 5785 5785 5786 5786 5787 5787 5787 5786
5716 5718 5720 5722 5725 5727 5729 5732 5734 5737 5740 5742 5745 5747 5749 5752 5753 5755 5758 5759 5761 5762 5764 5766 5767 5769 5770 5772 5773 5774 5775 5775 5776 5776 5776 5776 5777 5777 5778 5778 5778 5778 5778
5708 5710 5712 5714 5716 5718 5721 5723 5725 5728 5731 5733 5736 5738 5740 5742 5744 5746 5748 5750 5752 5753 5755 5757 5758 5760 5761 5762 5763 5765 5766 5767 5767 5768 5768 5768 5769 5769 5769 5770 5770 5769 5769
5700 5702 5704 5706 5708 5710 5712 5714 5717 5719 5722 5724 5726 5729 5731 5733 5735 5737 5739 5741 5742 5744 5745 5747 5748 5750 5751 5752 5753 5755 5756 5757 5758 5759 5759 5759 5760 5760 5760 5760 5760 5760 5760
5693 5694 5695 5697 5699 5701 5703 5706 5708 5711 5713 5715 5717 5719 5721 5723 5725 5727 5729 5731 5732 5734 5735 5737 5738 5739 5741 5742 5743 5745 5746 5747 5748 5749 5749 5750 5750 5750 5751 5751 5750 5750 5750
5685 5686 5687 5688 5690 5692 5695 5697 5699 5701 5704 5705 5707 5709 5711 5713 5715 5717 5719 5721 5722 5724 5725 5726 5727 5728 5730 5732 5733 5734 5736 5738 5738 5739 5739 5740 5740 5740 5740 5740 5740 5740 5739
5676 5677 5678 5680 5681 5683 5685 5687 5689 5691 5693 5695 5697 5699 5700 5702 5704 5706 5708 5710 5712 5713 5714 5716 5717 5719 5720 5721 5722 5723 5725 5726 5728 5728 5729 5729 5729 5729 5729 5729 5729 5729 5728
5668 5669 5670 5671 5672 5674 5675 5677 5679 5681 5683 5685 5686 5688 5689 5691 5693 5695 5697 5699 5701 5703 5704 5705 5706 5707 5709 5710 5711 5712 5713 5715 5716 5717 5718 5718 5718 5718 5718 5717 5717 5717 5716
5659 5660 5661 5662 5663 5665 5666 5667 5668 5670 5672 5673 5675 5677 5678 5680 5682 5684 5686 5688 5689 5691 5693 5694 5695 5697 5698 5699 5700 5701 5702 5703 5703 5705 5706 5707 5706 5706 5706 5706 5705 5705 5704
5651 5651 5652 5653 5654 5655 5656 5657 5658 5659 5660 5661 5663 5665 5667 5669 5670 5672 5674 5676 5678 5680 5681 5683 5684 5685 5686 5688 5688 5689 5690 5691 5692 5693 5694 5695 5695 5695 5694 5693 5693 5692 5691